| time (UTC) | temp F | wind direction | speed MPH | gust MPH | rain 1hr in | rain 24hr in | rain mn in | humidity % | barometer mb |
| 20260509223824 | 51 | 175 | 5.0 | 10.0 | 0.00 | 0.00 | 0.00 | 58 | 1017.9 |
| 20260509223325 | 51 | 269 | 1.0 | 14.0 | 0.00 | 0.00 | 0.00 | 59 | 1018.0 |
| 20260509222825 | 52 | 186 | 2.0 | 15.0 | 0.00 | 0.00 | 0.00 | 57 | 1017.8 |
| 20260509221823 | 55 | 185 | 7.0 | 13.0 | 0.00 | 0.00 | 0.00 | 47 | 1017.5 |
| 20260509221324 | 55 | 234 | 5.0 | 15.0 | 0.00 | 0.00 | 0.00 | 44 | 1017.0 |
| 20260509220824 | 56 | 215 | 13.0 | 15.0 | 0.00 | 0.00 | 0.00 | 40 | 1017.1 |
| 20260509220324 | 56 | 171 | 9.0 | 13.0 | 0.00 | 0.00 | 0.00 | 41 | 1016.6 |
| 20260509215823 | 56 | 243 | 7.0 | 11.0 | 0.00 | 0.00 | 0.00 | 42 | 1016.7 |
| 20260509215322 | 56 | 246 | 4.0 | 9.0 | 0.00 | 0.00 | 0.00 | 42 | 1016.5 |
| 20260509213822 | 56 | 287 | 5.0 | 15.0 | 0.00 | 0.00 | 0.00 | 40 | 1016.2 |
| 20260509213321 | 57 | 237 | 5.0 | 15.0 | 0.00 | 0.00 | 0.00 | 38 | 1016.3 |
| 20260509212820 | 57 | 253 | 3.0 | 12.0 | 0.00 | 0.00 | 0.00 | 39 | 1016.3 |
| 20260509211820 | 57 | 297 | 4.0 | 9.0 | 0.00 | 0.00 | 0.00 | 38 | 1016.1 |
| 20260509211320 | 58 | 240 | 4.0 | 9.0 | 0.00 | 0.00 | 0.00 | 37 | 1016.2 |
| 20260509210819 | 58 | 293 | 6.0 | 9.0 | 0.00 | 0.00 | 0.00 | 36 | 1016.0 |
| 20260509210332 | 58 | 299 | 7.0 | 10.0 | 0.00 | 0.00 | 0.00 | 35 | 1016.3 |
| 20260509205818 | 58 | 268 | 8.0 | 12.0 | 0.00 | 0.00 | 0.00 | 35 | 1016.2 |
| 20260509205318 | 58 | 268 | 6.0 | 12.0 | 0.00 | 0.00 | 0.00 | 37 | 1016.2 |
| 20260509204816 | 58 | 287 | 7.0 | 11.0 | 0.00 | 0.00 | 0.00 | 36 | 1016.0 |
| 20260509204317 | 59 | 271 | 7.0 | 11.0 | 0.00 | 0.00 | 0.00 | 33 | 1016.0 |
| 20260509203816 | 59 | 291 | 5.0 | 9.0 | 0.00 | 0.00 | 0.00 | 34 | 1015.8 |
| 20260509203315 | 60 | 294 | 7.0 | 9.0 | 0.00 | 0.00 | 0.00 | 35 | 1015.7 |
| 20260509202316 | 60 | 259 | 5.0 | 16.0 | 0.00 | 0.00 | 0.00 | 35 | 1015.7 |
| 20260509201814 | 60 | 230 | 9.0 | 16.0 | 0.00 | 0.00 | 0.00 | 28 | 1015.6 |
| 20260509200312 | 61 | 228 | 6.0 | 14.0 | 0.00 | 0.00 | 0.00 | 30 | 1015.6 |
| 20260509195813 | 61 | 268 | 10.0 | 14.0 | 0.00 | 0.00 | 0.00 | 32 | 1015.6 |
| 20260509195313 | 61 | 287 | 7.0 | 16.0 | 0.00 | 0.00 | 0.00 | 32 | 1015.7 |
| 20260509194813 | 61 | 263 | 5.0 | 16.0 | 0.00 | 0.00 | 0.00 | 30 | 1015.6 |
| 20260509194312 | 61 | 330 | 4.0 | 14.0 | 0.00 | 0.00 | 0.00 | 32 | 1015.7 |
| 20260509193809 | 61 | 246 | 8.0 | 15.0 | 0.00 | 0.00 | 0.00 | 30 | 1015.5 |
| 20260509193309 | 60 | 282 | 6.0 | 17.0 | 0.00 | 0.00 | 0.00 | 35 | 1015.7 |
| 20260509192259 | 60 | 278 | 11.0 | 19.0 | 0.00 | 0.00 | 0.00 | 31 | 1015.7 |
| 20260509191759 | 60 | 220 | 17.0 | 18.0 | 0.00 | 0.00 | 0.00 | 29 | 1015.6 |
| 20260509191245 | 60 | 269 | 8.0 | 17.0 | 0.00 | 0.00 | 0.00 | 35 | 1015.7 |
| 20260509190241 | 60 | 260 | 8.0 | 19.0 | 0.00 | 0.00 | 0.00 | 34 | 1015.6 |
| 20260509185236 | 61 | 213 | 11.0 | 17.0 | 0.00 | 0.00 | 0.00 | 30 | 1015.7 |
| 20260509184734 | 60 | 272 | 9.0 | 16.0 | 0.00 | 0.00 | 0.00 | 29 | 1015.6 |
| 20260509184232 | 60 | 282 | 11.0 | 17.0 | 0.00 | 0.00 | 0.00 | 30 | 1015.4 |
| 20260509183731 | 60 | 248 | 9.0 | 17.0 | 0.00 | 0.00 | 0.00 | 31 | 1015.6 |
| 20260509183232 | 61 | 203 | 6.0 | 14.0 | 0.00 | 0.00 | 0.00 | 33 | 1015.4 |
| 20260509182730 | 61 | 186 | 4.0 | 18.0 | 0.00 | 0.00 | 0.00 | 35 | 1015.5 |
| 20260509182227 | 60 | 250 | 5.0 | 18.0 | 0.00 | 0.00 | 0.00 | 30 | 1015.4 |
| 20260509181724 | 60 | 251 | 4.0 | 14.0 | 0.00 | 0.00 | 0.00 | 33 | 1015.6 |
| 20260509181225 | 60 | 196 | 6.0 | 17.0 | 0.00 | 0.00 | 0.00 | 33 | 1015.8 |
| 20260509180719 | 60 | 169 | 6.0 | 17.0 | 0.00 | 0.00 | 0.00 | 34 | 1015.6 |
| 20260509175717 | 60 | 259 | 5.0 | 16.0 | 0.00 | 0.00 | 0.00 | 32 | 1015.7 |
| 20260509175212 | 61 | 267 | 6.0 | 16.0 | 0.00 | 0.00 | 0.00 | 36 | 1015.4 |
| 20260509174712 | 60 | 265 | 5.0 | 13.0 | 0.00 | 0.00 | 0.00 | 32 | 1015.7 |
| 20260509174211 | 60 | 239 | 9.0 | 13.0 | 0.00 | 0.00 | 0.00 | 31 | 1015.5 |
| 20260509173712 | 60 | 195 | 4.0 | 13.0 | 0.00 | 0.00 | 0.00 | 36 | 1015.5 |
| 20260509173208 | 60 | 179 | 5.0 | 16.0 | 0.00 | 0.00 | 0.00 | 41 | 1015.6 |
| 20260509172208 | 59 | 300 | 11.0 | 20.0 | 0.00 | 0.00 | 0.00 | 35 | 1015.3 |
| 20260509171706 | 59 | 244 | 4.0 | 13.0 | 0.00 | 0.00 | 0.00 | 35 | 1015.5 |
| 20260509171206 | 59 | 266 | 6.0 | 12.0 | 0.00 | 0.00 | 0.00 | 34 | 1015.5 |
| 20260509170707 | 59 | 277 | 6.0 | 14.0 | 0.00 | 0.00 | 0.00 | 36 | 1015.6 |
| 20260509170203 | 60 | 280 | 8.0 | 14.0 | 0.00 | 0.00 | 0.00 | 35 | 1015.5 |
| 20260509165701 | 59 | 262 | 7.0 | 14.0 | 0.00 | 0.00 | 0.00 | 35 | 1015.4 |
| 20260509165200 | 59 | 235 | 6.0 | 14.0 | 0.00 | 0.00 | 0.00 | 38 | 1015.2 |
| 20260509164700 | 59 | 323 | 5.0 | 14.0 | 0.00 | 0.00 | 0.00 | 37 | 1015.4 |
| 20260509164200 | 59 | 233 | 9.0 | 13.0 | 0.00 | 0.00 | 0.00 | 37 | 1015.3 |
| 20260509163700 | 59 | 299 | 11.0 | 16.0 | 0.00 | 0.00 | 0.00 | 37 | 1015.2 |
| 20260509163200 | 59 | 214 | 5.0 | 18.0 | 0.00 | 0.00 | 0.00 | 39 | 1015.3 |
| 20260509162157 | 59 | 125 | 4.0 | 13.0 | 0.00 | 0.00 | 0.00 | 43 | 1015.1 |
| 20260509161155 | 59 | 255 | 5.0 | 15.0 | 0.00 | 0.00 | 0.00 | 43 | 1015.3 |
| 20260509160656 | 58 | 240 | 6.0 | 13.0 | 0.00 | 0.00 | 0.00 | 46 | 1015.4 |
| 20260509160155 | 59 | 256 | 5.0 | 11.0 | 0.00 | 0.00 | 0.00 | 44 | 1015.5 |
| 20260509155655 | 58 | 197 | 4.0 | 16.0 | 0.00 | 0.00 | 0.00 | 44 | 1015.4 |
| 20260509155155 | 57 | 222 | 14.0 | 16.0 | 0.00 | 0.00 | 0.00 | 43 | 1015.5 |
| 20260509154656 | 57 | 237 | 9.0 | 16.0 | 0.00 | 0.00 | 0.00 | 44 | 1015.5 |
| 20260509154153 | 57 | 246 | 4.0 | 12.0 | 0.00 | 0.00 | 0.00 | 48 | 1015.5 |
| 20260509153653 | 56 | 237 | 9.0 | 18.0 | 0.00 | 0.00 | 0.00 | 42 | 1015.4 |
| 20260509153152 | 57 | 309 | 8.0 | 18.0 | 0.00 | 0.00 | 0.00 | 46 | 1015.4 |
| 20260509152649 | 58 | 244 | 3.0 | 12.0 | 0.00 | 0.00 | 0.00 | 46 | 1015.5 |
| 20260509152148 | 57 | 261 | 8.0 | 13.0 | 0.00 | 0.00 | 0.00 | 47 | 1015.4 |
| 20260509151647 | 57 | 292 | 6.0 | 13.0 | 0.00 | 0.00 | 0.00 | 45 | 1015.4 |
| 20260509151147 | 57 | 230 | 2.0 | 13.0 | 0.00 | 0.00 | 0.00 | 45 | 1015.3 |
| 20260509150646 | 56 | 217 | 7.0 | 16.0 | 0.00 | 0.00 | 0.00 | 42 | 1015.4 |
| 20260509150145 | 56 | 288 | 7.0 | 16.0 | 0.00 | 0.00 | 0.00 | 48 | 1015.5 |
| 20260509145645 | 56 | 266 | 8.0 | 13.0 | 0.00 | 0.00 | 0.00 | 47 | 1015.6 |
| 20260509144642 | 54 | 255 | 6.0 | 15.0 | 0.00 | 0.00 | 0.00 | 48 | 1015.4 |
| 20260509144143 | 54 | 263 | 7.0 | 12.0 | 0.00 | 0.00 | 0.00 | 48 | 1015.4 |
| 20260509143641 | 54 | 302 | 6.0 | 12.0 | 0.00 | 0.00 | 0.00 | 46 | 1015.5 |
| 20260509143154 | 54 | 284 | 8.0 | 14.0 | 0.00 | 0.00 | 0.00 | 47 | 1015.6 |
| 20260509142641 | 54 | 261 | 9.0 | 14.0 | 0.00 | 0.00 | 0.00 | 47 | 1015.6 |
| 20260509142137 | 54 | 267 | 7.0 | 14.0 | 0.00 | 0.00 | 0.00 | 48 | 1015.3 |
| 20260509141636 | 55 | 268 | 9.0 | 17.0 | 0.00 | 0.00 | 0.00 | 46 | 1015.4 |
| 20260509141133 | 55 | 281 | 9.0 | 17.0 | 0.00 | 0.00 | 0.00 | 47 | 1015.2 |
| 20260509140634 | 56 | 219 | 6.0 | 11.0 | 0.00 | 0.00 | 0.00 | 47 | 1015.2 |
| 20260509140129 | 58 | 198 | 6.0 | 11.0 | 0.00 | 0.00 | 0.00 | 50 | 1015.2 |
| 20260509135631 | 57 | 237 | 6.0 | 12.0 | 0.00 | 0.00 | 0.00 | 50 | 1015.2 |
| 20260509135124 | 56 | 218 | 5.0 | 12.0 | 0.00 | 0.00 | 0.00 | 47 | 1015.0 |
| 20260509134623 | 56 | 206 | 5.0 | 13.0 | 0.00 | 0.00 | 0.00 | 49 | 1015.1 |
| 20260509134123 | 55 | 195 | 8.0 | 13.0 | 0.00 | 0.00 | 0.00 | 50 | 1015.1 |
| 20260509133619 | 56 | 165 | 2.0 | 14.0 | 0.00 | 0.00 | 0.00 | 52 | 1015.0 |
| 20260509133118 | 55 | 266 | 6.0 | 14.0 | 0.00 | 0.00 | 0.00 | 52 | 1015.1 |
| 20260509132627 | 55 | 147 | 2.0 | 11.0 | 0.00 | 0.00 | 0.00 | 53 | 1014.8 |
| 20260509132117 | 55 | 219 | 5.0 | 11.0 | 0.00 | 0.00 | 0.00 | 54 | 1014.8 |
| 20260509131619 | 55 | 170 | 3.0 | 9.0 | 0.00 | 0.00 | 0.00 | 56 | 1014.9 |
| 20260509131117 | 55 | 268 | 3.0 | 9.0 | 0.00 | 0.00 | 0.00 | 56 | 1014.8 |
| 20260509130617 | 55 | 182 | 5.0 | 8.0 | 0.00 | 0.00 | 0.00 | 57 | 1014.8 |
| 20260509125615 | 54 | 194 | 4.0 | 8.0 | 0.00 | 0.00 | 0.00 | 56 | 1014.6 |
| 20260509125112 | 54 | 239 | 4.0 | 7.0 | 0.00 | 0.00 | 0.00 | 57 | 1014.4 |
| 20260509124612 | 54 | 187 | 2.0 | 7.0 | 0.00 | 0.00 | 0.00 | 60 | 1014.4 |
| 20260509124113 | 53 | 200 | 2.0 | 7.0 | 0.00 | 0.00 | 0.00 | 59 | 1014.6 |
| 20260509123612 | 53 | 189 | 2.0 | 7.0 | 0.00 | 0.00 | 0.00 | 60 | 1014.4 |
| 20260509123111 | 52 | 183 | 5.0 | 7.0 | 0.00 | 0.00 | 0.00 | 62 | 1014.4 |
| 20260509122609 | 51 | 297 | 3.0 | 9.0 | 0.00 | 0.00 | 0.00 | 64 | 1014.3 |
| 20260509122107 | 51 | 258 | 4.0 | 9.0 | 0.00 | 0.00 | 0.00 | 65 | 1014.2 |
| 20260509121604 | 51 | 261 | 6.0 | 7.0 | 0.00 | 0.00 | 0.00 | 65 | 1014.3 |
| 20260509120600 | 50 | 163 | 1.0 | 6.0 | 0.00 | 0.00 | 0.00 | 71 | 1014.3 |
| 20260509120101 | 50 | 261 | 3.0 | 8.0 | 0.00 | 0.00 | 0.00 | 73 | 1014.3 |
| 20260509115601 | 50 | 256 | 0.0 | 8.0 | 0.00 | 0.00 | 0.00 | 72 | 1014.3 |
| 20260509115058 | 49 | 233 | 1.0 | 8.0 | 0.00 | 0.00 | 0.00 | 75 | 1014.3 |
| 20260509114555 | 48 | 278 | 2.0 | 9.0 | 0.00 | 0.00 | 0.00 | 78 | 1014.5 |
| 20260509114057 | 48 | 238 | 6.0 | 9.0 | 0.00 | 0.00 | 0.00 | 76 | 1014.1 |
| 20260509113552 | 47 | 251 | 0.0 | 8.0 | 0.00 | 0.00 | 0.00 | 80 | 1014.2 |
| 20260509113048 | 47 | 183 | 3.0 | 8.0 | 0.00 | 0.00 | 0.00 | 80 | 1014.0 |
| 20260509112047 | 45 | 226 | 7.0 | 8.0 | 0.00 | 0.00 | 0.00 | 82 | 1014.2 |
| 20260509111546 | 45 | 176 | 2.0 | 5.0 | 0.00 | 0.00 | 0.00 | 86 | 1014.2 |
| 20260509111045 | 44 | 142 | 2.0 | 4.0 | 0.00 | 0.00 | 0.00 | 86 | 1014.1 |
| 20260509110548 | 44 | 154 | 2.0 | 6.0 | 0.00 | 0.00 | 0.00 | 88 | 1014.0 |
| 20260509105546 | 43 | 249 | 4.0 | 6.0 | 0.00 | 0.00 | 0.00 | 88 | 1013.9 |
| 20260509105046 | 42 | 229 | 3.0 | 6.0 | 0.00 | 0.00 | 0.00 | 89 | 1014.1 |
| 20260509104547 | 41 | 254 | 3.0 | 6.0 | 0.00 | 0.00 | 0.00 | 90 | 1013.9 |
| 20260509104046 | 40 | 173 | 3.0 | 6.0 | 0.00 | 0.00 | 0.00 | 91 | 1013.7 |
| 20260509103546 | 40 | 239 | 6.0 | 6.0 | 0.00 | 0.00 | 0.00 | 92 | 1013.9 |
| 20260509103045 | 40 | 213 | 2.0 | 5.0 | 0.00 | 0.00 | 0.00 | 92 | 1013.7 |
| 20260509102544 | 39 | 281 | 1.0 | 5.0 | 0.00 | 0.00 | 0.00 | 93 | 1013.6 |
| 20260509102043 | 38 | 184 | 0.0 | 4.0 | 0.00 | 0.00 | 0.00 | 93 | 1013.5 |
| 20260509101543 | 38 | 164 | 2.0 | 4.0 | 0.00 | 0.00 | 0.00 | 94 | 1013.4 |
| 20260509101041 | 37 | 166 | 1.0 | 4.0 | 0.00 | 0.00 | 0.00 | 94 | 1013.6 |
| 20260509100539 | 37 | 236 | 2.0 | 4.0 | 0.00 | 0.00 | 0.00 | 93 | 1013.4 |
| 20260509100053 | 37 | 222 | 4.0 | 4.0 | 0.00 | 0.00 | 0.00 | 92 | 1013.2 |
| 20260509095539 | 37 | 212 | 2.0 | 3.0 | 0.00 | 0.00 | 0.00 | 91 | 1013.0 |
| 20260509095039 | 37 | 229 | 0.0 | 2.0 | 0.00 | 0.00 | 0.00 | 87 | 1013.0 |
| 20260509094037 | 37 | 10 | 0.0 | 1.0 | 0.00 | 0.00 | 0.00 | 90 | 1012.5 |
| 20260509093536 | 37 | 27 | 0.0 | 2.0 | 0.00 | 0.00 | 0.00 | 90 | 1012.5 |
| 20260509092536 | 36 | 318 | 1.0 | 2.0 | 0.00 | 0.00 | 0.00 | 86 | 1012.5 |
| 20260509092036 | 37 | 302 | 0.0 | 2.0 | 0.00 | 0.00 | 0.00 | 86 | 1012.2 |
| 20260509091536 | 37 | 314 | 0.0 | 1.0 | 0.00 | 0.00 | 0.00 | 86 | 1012.1 |
| 20260509091036 | 36 | 314 | 0.0 | 2.0 | 0.00 | 0.00 | 0.00 | 87 | 1012.0 |
| 20260509090534 | 35 | 215 | 0.0 | 2.0 | 0.00 | 0.00 | 0.00 | 89 | 1012.2 |
| 20260509090034 | 35 | 121 | 0.0 | 2.0 | 0.00 | 0.00 | 0.00 | 89 | 1012.1 |
| 20260509085532 | 36 | 41 | 0.0 | 1.0 | 0.00 | 0.00 | 0.00 | 89 | 1012.0 |
| 20260509085032 | 36 | 215 | 0.0 | 1.0 | 0.00 | 0.00 | 0.00 | 89 | 1012.0 |
| 20260509084029 | 37 | 134 | 0.0 | 1.0 | 0.00 | 0.00 | 0.00 | 88 | 1012.0 |
| 20260509083518 | 38 | 109 | 1.0 | 2.0 | 0.00 | 0.00 | 0.00 | 89 | 1012.0 |
| 20260509083015 | 38 | 12 | 0.0 | 2.0 | 0.00 | 0.00 | 0.00 | 89 | 1012.1 |
| 20260509082514 | 37 | 286 | 1.0 | 2.0 | 0.00 | 0.00 | 0.00 | 90 | 1011.9 |
| 20260509081512 | 35 | 49 | 0.0 | 2.0 | 0.00 | 0.00 | 0.00 | 91 | 1011.7 |
| 20260509081015 | 36 | 61 | 1.0 | 2.0 | 0.00 | 0.00 | 0.00 | 91 | 1011.7 |
| 20260509080513 | 37 | 49 | 0.0 | 2.0 | 0.00 | 0.00 | 0.00 | 90 | 1011.8 |
| 20260509080013 | 37 | 60 | 1.0 | 2.0 | 0.00 | 0.00 | 0.00 | 89 | 1011.6 |
| 20260509075510 | 38 | 61 | 1.0 | 2.0 | 0.00 | 0.00 | 0.00 | 88 | 1011.7 |
| 20260509075010 | 39 | 48 | 1.0 | 2.0 | 0.00 | 0.00 | 0.00 | 89 | 1011.5 |
| 20260509074510 | 39 | 290 | 0.0 | 2.0 | 0.00 | 0.00 | 0.00 | 89 | 1011.5 |
| 20260509073018 | 37 | 132 | 2.0 | 2.0 | 0.00 | 0.00 | 0.00 | 91 | 1011.5 |
| 20260509072505 | 37 | 92 | 0.0 | 2.0 | 0.00 | 0.00 | 0.00 | 90 | 1011.5 |
| 20260509072006 | 38 | 132 | 0.0 | 2.0 | 0.00 | 0.00 | 0.00 | 90 | 1011.4 |
| 20260509071006 | 39 | 81 | 0.0 | 2.0 | 0.00 | 0.00 | 0.00 | 87 | 1011.5 |
| 20260509070504 | 39 | 55 | 0.0 | 2.0 | 0.00 | 0.00 | 0.00 | 87 | 1011.3 |
| 20260509070007 | 40 | 41 | 0.0 | 2.0 | 0.00 | 0.00 | 0.00 | 87 | 1011.3 |
| 20260509065504 | 40 | 192 | 0.0 | 1.0 | 0.00 | 0.00 | 0.00 | 88 | 1011.3 |
| 20260509065011 | 40 | 279 | 0.0 | 2.0 | 0.00 | 0.00 | 0.00 | 89 | 1011.2 |
| 20260509064502 | 38 | 258 | 0.0 | 2.0 | 0.00 | 0.00 | 0.00 | 91 | 1011.2 |
| 20260509064002 | 38 | 221 | 0.0 | 3.0 | 0.00 | 0.00 | 0.00 | 92 | 1011.3 |
| 20260509063503 | 38 | 289 | 2.0 | 3.0 | 0.00 | 0.00 | 0.00 | 92 | 1011.0 |
| 20260509062500 | 38 | 326 | 2.0 | 4.0 | 0.00 | 0.00 | 0.00 | 92 | 1011.1 |
| 20260509062005 | 38 | 294 | 1.0 | 4.0 | 0.00 | 0.00 | 0.00 | 92 | 1010.9 |
| 20260509061457 | 38 | 231 | 2.0 | 5.0 | 0.00 | 0.00 | 0.00 | 91 | 1010.8 |
| 20260509060957 | 39 | 274 | 2.0 | 5.0 | 0.00 | 0.00 | 0.00 | 90 | 1010.7 |
| 20260509060456 | 39 | 235 | 3.0 | 4.0 | 0.00 | 0.00 | 0.00 | 91 | 1010.7 |
| 20260509055955 | 39 | 274 | 2.0 | 4.0 | 0.00 | 0.00 | 0.00 | 90 | 1010.7 |
| 20260509055456 | 39 | 282 | 1.0 | 2.0 | 0.00 | 0.00 | 0.00 | 89 | 1010.6 |
| 20260509054454 | 40 | 268 | 0.0 | 2.0 | 0.00 | 0.00 | 0.00 | 89 | 1010.5 |
| 20260509053953 | 40 | 141 | 0.0 | 2.0 | 0.00 | 0.00 | 0.00 | 90 | 1010.4 |
| 20260509053452 | 39 | 128 | 1.0 | 1.0 | 0.00 | 0.00 | 0.00 | 91 | 1010.4 |
| 20260509052952 | 38 | 3 | 0.0 | 2.0 | 0.00 | 0.00 | 0.00 | 93 | 1010.4 |
| 20260509052452 | 38 | 290 | 0.0 | 2.0 | 0.00 | 0.00 | 0.00 | 93 | 1010.3 |
| 20260509051949 | 38 | 294 | 0.0 | 2.0 | 0.00 | 0.00 | 0.00 | 92 | 1010.3 |
| 20260509051448 | 38 | 254 | 1.0 | 2.0 | 0.00 | 0.00 | 0.00 | 92 | 1010.3 |
| 20260509045948 | 39 | 91 | 0.0 | 1.0 | 0.00 | 0.00 | 0.00 | 89 | 1009.9 |
| 20260509045448 | 40 | 117 | 0.0 | 4.0 | 0.00 | 0.00 | 0.00 | 89 | 1009.9 |
| 20260509044448 | 40 | 243 | 2.0 | 3.0 | 0.00 | 0.00 | 0.00 | 90 | 1009.8 |
| 20260509043948 | 40 | 241 | 2.0 | 5.0 | 0.00 | 0.00 | 0.00 | 90 | 1009.8 |
| 20260509042443 | 40 | 297 | 0.0 | 1.0 | 0.00 | 0.00 | 0.00 | 91 | 1009.4 |
| 20260509041941 | 39 | 340 | 0.0 | 1.0 | 0.00 | 0.00 | 0.00 | 92 | 1009.3 |
| 20260509041454 | 38 | 283 | 0.0 | 1.0 | 0.00 | 0.00 | 0.00 | 94 | 1009.2 |
| 20260509040942 | 38 | 88 | 0.0 | 1.0 | 0.00 | 0.00 | 0.00 | 94 | 1009.3 |
| 20260509040442 | 38 | 132 | 0.0 | 0.0 | 0.00 | 0.00 | 0.00 | 94 | 1009.3 |
| 20260509035941 | 39 | 132 | 0.0 | 0.0 | 0.00 | 0.00 | 0.00 | 93 | 1009.2 |
| 20260509035436 | 39 | 192 | 0.0 | 0.0 | 0.00 | 0.00 | 0.00 | 93 | 1009.1 |
| 20260509034938 | 39 | 285 | 0.0 | 2.0 | 0.00 | 0.00 | 0.00 | 93 | 1008.9 |
| 20260509034435 | 39 | 279 | 1.0 | 2.0 | 0.00 | 0.00 | 0.00 | 93 | 1008.8 |
| 20260509033936 | 40 | 305 | 0.0 | 2.0 | 0.00 | 0.00 | 0.00 | 93 | 1008.9 |
| 20260509032936 | 40 | 281 | 0.0 | 2.0 | 0.00 | 0.00 | 0.00 | 92 | 1008.9 |
| 20260509032432 | 40 | 294 | 0.0 | 2.0 | 0.00 | 0.00 | 0.00 | 92 | 1008.8 |
| 20260509031934 | 40 | 250 | 2.0 | 2.0 | 0.00 | 0.00 | 0.00 | 92 | 1008.6 |
| 20260509031429 | 41 | 299 | 0.0 | 2.0 | 0.00 | 0.00 | 0.00 | 92 | 1008.6 |
| 20260509025925 | 41 | 267 | 1.0 | 2.0 | 0.00 | 0.00 | 0.00 | 91 | 1008.7 |
| 20260509024421 | 42 | 88 | 0.0 | 2.0 | 0.00 | 0.00 | 0.00 | 90 | 1008.6 |
| 20260509023921 | 43 | 85 | 0.0 | 2.0 | 0.00 | 0.00 | 0.00 | 90 | 1008.7 |
| 20260509023420 | 43 | 104 | 0.0 | 2.0 | 0.00 | 0.00 | 0.00 | 89 | 1008.5 |
| 20260509022910 | 43 | 145 | 0.0 | 1.0 | 0.00 | 0.00 | 0.00 | 87 | 1008.5 |
| 20260509022408 | 44 | 122 | 0.0 | 1.0 | 0.00 | 0.00 | 0.00 | 87 | 1008.7 |
| 20260509021348 | 44 | 290 | 0.0 | 6.0 | 0.00 | 0.00 | 0.00 | 86 | 1008.5 |
| 20260509020349 | 45 | 227 | 3.0 | 6.0 | 0.00 | 0.00 | 0.00 | 85 | 1008.4 |
| 20260509015850 | 45 | 235 | 4.0 | 6.0 | 0.00 | 0.00 | 0.00 | 84 | 1008.5 |
| 20260509015346 | 45 | 226 | 4.0 | 4.0 | 0.00 | 0.00 | 0.00 | 83 | 1008.3 |
| 20260509014341 | 46 | 224 | 3.0 | 8.0 | 0.00 | 0.00 | 0.00 | 81 | 1008.3 |
| 20260509013838 | 46 | 269 | 4.0 | 8.0 | 0.00 | 0.00 | 0.00 | 81 | 1008.1 |
| 20260509013334 | 46 | 274 | 4.0 | 6.0 | 0.00 | 0.00 | 0.00 | 80 | 1008.2 |
| 20260509012835 | 46 | 260 | 5.0 | 6.0 | 0.00 | 0.00 | 0.00 | 79 | 1008.1 |
| 20260509012333 | 46 | 302 | 4.0 | 6.0 | 0.00 | 0.00 | 0.00 | 79 | 1007.9 |
| 20260509011834 | 46 | 284 | 4.0 | 6.0 | 0.00 | 0.00 | 0.00 | 79 | 1008.0 |
| 20260509010829 | 46 | 215 | 5.0 | 7.0 | 0.00 | 0.00 | 0.00 | 78 | 1007.7 |
| 20260509010328 | 46 | 288 | 4.0 | 7.0 | 0.00 | 0.00 | 0.00 | 78 | 1007.6 |
| 20260509005827 | 46 | 300 | 4.0 | 10.0 | 0.00 | 0.00 | 0.00 | 79 | 1007.7 |
| 20260509005327 | 46 | 289 | 5.0 | 10.0 | 0.00 | 0.00 | 0.00 | 78 | 1007.5 |
| 20260509004824 | 46 | 256 | 5.0 | 11.0 | 0.00 | 0.00 | 0.00 | 77 | 1007.5 |
| 20260509004324 | 46 | 226 | 5.0 | 11.0 | 0.00 | 0.00 | 0.00 | 76 | 1007.5 |
| 20260509003824 | 46 | 237 | 6.0 | 9.0 | 0.00 | 0.00 | 0.00 | 77 | 1007.4 |
| 20260509003323 | 46 | 229 | 5.0 | 11.0 | 0.00 | 0.00 | 0.00 | 78 | 1007.3 |
| 20260509002322 | 46 | 248 | 5.0 | 8.0 | 0.00 | 0.00 | 0.00 | 76 | 1007.2 |
| 20260509001327 | 46 | 234 | 6.0 | 10.0 | 0.00 | 0.00 | 0.00 | 77 | 1007.1 |
| 20260509000822 | 46 | 240 | 4.0 | 9.0 | 0.00 | 0.00 | 0.00 | 77 | 1006.9 |
| 20260509000319 | 46 | 260 | 3.0 | 5.0 | 0.00 | 0.00 | 0.00 | 77 | 1006.8 |
| 20260508235816 | 46 | 242 | 3.0 | 5.0 | 0.00 | 0.00 | 0.00 | 77 | 1006.6 |
| 20260508235315 | 46 | 198 | 2.0 | 4.0 | 0.00 | 0.00 | 0.00 | 78 | 1006.7 |
| 20260508234816 | 46 | 182 | 2.0 | 5.0 | 0.00 | 0.00 | 0.00 | 76 | 1006.6 |
| 20260508234313 | 46 | 189 | 2.0 | 5.0 | 0.00 | 0.00 | 0.00 | 76 | 1006.4 |
| 20260508233811 | 47 | 178 | 2.0 | 5.0 | 0.00 | 0.00 | 0.00 | 75 | 1006.5 |
| 20260508233306 | 47 | 234 | 3.0 | 6.0 | 0.00 | 0.00 | 0.00 | 74 | 1006.5 |
| 20260508232806 | 47 | 263 | 5.0 | 7.0 | 0.00 | 0.00 | 0.00 | 74 | 1006.3 |
| 20260508232306 | 47 | 285 | 5.0 | 11.0 | 0.00 | 0.00 | 0.00 | 74 | 1006.4 |
| 20260508231801 | 47 | 300 | 7.0 | 18.0 | 0.00 | 0.00 | 0.00 | 73 | 1006.3 |
| 20260508231300 | 47 | 305 | 7.0 | 24.0 | 0.00 | 0.00 | 0.00 | 72 | 1006.2 |
| 20260508230757 | 48 | 290 | 6.0 | 24.0 | 0.00 | 0.00 | 0.00 | 70 | 1006.3 |
| 20260508230256 | 49 | 299 | 23.0 | 24.0 | 0.00 | 0.00 | 0.00 | 66 | 1006.0 |
| 20260508225752 | 49 | 267 | 10.0 | 13.0 | 0.00 | 0.00 | 0.00 | 63 | 1006.0 |
| 20260508225248 | 50 | 276 | 4.0 | 9.0 | 0.00 | 0.00 | 0.00 | 63 | 1005.9 |
| 20260508224745 | 50 | 272 | 6.0 | 9.0 | 0.00 | 0.00 | 0.00 | 63 | 1005.7 |
| 20260508224244 | 50 | 278 | 6.0 | 13.0 | 0.00 | 0.00 | 0.00 | 63 | 1005.4 |